Regional Weather Roundup
Issued by NWS

Home | Current Version | Previous Version | Text Only | Print | Product List | Glossary On
Versions: 1 2 3 4 5 6 7 8 9 10 11 12 13 14 15 16 17 18 19 20 21 22 23 24 25 26 27 28 29 30 31 32 33 34 35 36 37 38 39 40 41 42 43 44 45 46 47 48 49 50
000
ASUS45 KPSR 010110
RWRAZ

ARIZONA REGIONAL HOURLY WEATHER ROUNDUP
NATIONAL WEATHER SERVICE PHOENIX AZ
600 PM MST SAT FEB 28 2015

NOTE: FAIR INDICATES FEW OR NO CLOUDS BELOW 12,000 FEET WITH NO
SIGNIFICANT WEATHER AND/OR OBSTRUCTIONS TO VISIBILITY.

AZZ001>003-036-010200-
NORTHWEST ARIZONA

CITY           SKY/WX    TMP DP  RH WIND       PRES   REMARKS
BULLHEAD CITY  PTCLDY    68  27  21 S22G28    29.73R
KINGMAN        MOCLDY    54  28  36 SW25G32   29.78R
$$

AZZ004>008-015-016-018-010200-
NORTH CENTRAL ARIZONA

CITY           SKY/WX    TMP DP  RH WIND       PRES   REMARKS
GRAND CANYON   CLOUDY    38  27  64 SW10      29.83R WCI  31
PRESCOTT       MOCLDY    48  29  47 S14G26    29.85R
FLAGSTAFF      LGT RAIN  35  32  88 SW14      29.85R FOG     WCI  26
PAYSON         LGT RAIN  45  41  87 VRB6      29.93R
PAGE           MOCLDY    44  37  76 N7        29.79R
$$

AZZ009>014-017-010200-
NORTHEAST ARIZONA

CITY           SKY/WX    TMP DP  RH WIND       PRES   REMARKS
WINSLOW        PTCLDY    50  33  52 SW24G33   29.82R
SAINT JOHNS    MOCLDY    49  36  61 SW17G25   29.88R
WINDOW ROCK    CLOUDY    39  34  82 SW8       29.85R WCI  33
SHOW LOW       CLOUDY    39  37  93 SW22G32   29.91R WCI  29
$$

AZZ023-010200-
GREATER PHOENIX AREA

CITY           SKY/WX    TMP DP  RH WIND       PRES   REMARKS
PHOENIX        CLOUDY    69  42  37 SW3       29.81R
BUCKEYE        PTCLDY    64  48  55 S12       29.81R
DEER VALLEY    MOCLDY    65  42  43 S7        29.82R
SCOTTSDALE     CLOUDY    67  40  37 S5        29.84R
MESA-FALCON    CLOUDY    64  45  48 S9        29.83R
MESA-GATEWAY   MOCLDY    64  46  52 S5        29.85S
$$

AZZ027-028-010200-
SOUTHWEST MARICOPA COUNTY AND PINAL COUNTY

CITY           SKY/WX    TMP DP  RH WIND       PRES   REMARKS
CASA GRANDE    CLOUDY    64  45  48 S10       29.84S
GILA BEND      MOCLDY    68  46  45 S14G23    29.83R
$$

AZZ503-504-507>509-010200-
SOUTHEAST ARIZONA

CITY           SKY/WX    TMP DP  RH WIND       PRES   REMARKS
TUCSON         CLOUDY    68  41  37 SW10G20   29.88R
DAVIS-MONTHAN  MOCLDY    67  41  37 W10G21    29.86R
NOGALES        MOCLDY    63  41  44 S21       29.92R
SIERRA VISTA   CLEAR     60  39  45 SW12      29.94R
DOUGLAS        PTCLDY    63  38  39 SW17G29   29.93R
SAFFORD        CLOUDY    62  41  46 NW15      29.84R
$$

AZZ020-021-025-026-031-010200-
SOUTHWEST ARIZONA

CITY           SKY/WX    TMP DP  RH WIND       PRES   REMARKS
YUMA           CLOUDY    72  42  34 NW12      29.79R
$$

CAZ031-033-041-043-047-048-061-010200-
SOUTHERN CALIFORNIA

CITY           SKY/WX    TMP DP  RH WIND       PRES   REMARKS
DOWNTOWN L.A.  PTCLDY    60  46  59 VRB3      29.85R
L.A. AIRPORT   MOCLDY    59  46  62 SW12      29.85S
SAN DIEGO      MOCLDY    62  46  55 SW10      29.90R
BURBANK        CLOUDY    58  44  60 S10       29.84R
ONTARIO        PTCLDY    58  41  53 SW14      29.84S
RIVERSIDE      MOCLDY    60  38  43 W12       29.84S
PALM SPRINGS   PTCLDY    65  34  31 VRB5      29.79R
EL CENTRO NAS  CLEAR     68  38  33 W14       29.81R
IMPERIAL       CLEAR     67  41  38 W15       29.79S
BLYTHE         MOCLDY    69  38  32 W18       29.78R
NEEDLES        PTCLDY    69  26  20 SW16G23   29.74R
$$

NVZ020-UTZ003-010200-
SOUTHERN NEVADA-UTAH

CITY           SKY/WX    TMP DP  RH WIND       PRES   REMARKS
LAS VEGAS      PTCLDY    60  24  25 S18G28    29.68R
SALT LAKE CITY LGT RAIN  36  32  85 CALM      29.79R
$$

NMZ009-TXZ055-010200-
NEW MEXICO-WEST TEXAS

CITY           SKY/WX    TMP DP  RH WIND       PRES   REMARKS
ALBUQUERQUE    MOCLDY    35  26  69 N12       29.92R WCI  27
EL PASO        PTCLDY    67  28  23 VRB5      29.88R
$$


........................KEY........................
SKY/WX - SKY CONDITION/WEATHER
TMP    - TEMPERATURE IN FAHRENHEIT
DP     - DEW POINT IN FAHRENHEIT
RH     - RELATIVE HUMIDITY IN PERCENT
WIND   - DIRECTION AND SPEED IN MILES PER HOUR (MPH)
VRB    - VARIABLE WIND DIRECTION
PRES   - MEAN SEA LEVEL PRESSURE IN INCHES OF MERCURY
         F - FALLING PRESSURE   R - RISING PRESSURE
         S - STEADY PRESSURE
VSB    - VISIBILITY IN MILES
HX     - HEAT INDEX IN FAHRENHEIT
WCI    - WIND CHILL INDEX IN FAHRENHEIT
TC     - TEMPERATURE IN CELSIUS WHICH IS ALSO KNOWN AS
         TEMPERATURE IN CENTIGRADE
AFB    - AIR FORCE BASE
         LUKE AFB IS LUKE AIR FORCE BASE
         DAVIS-MONTHAN IS DAVIS-MONTHAN AIR FORCE BASE
NAS    - NAVAL AIR STATION
         EL CENTRO NAS IS EL CENTRO NAVAL AIR STATION
N/A    - NOT AVAILABLE


USA.gov is the U.S. government's official web portal to all federal, state and local government web resources and services.